Flagstaff, AZ

3:28 AM MST on May 25, 2017 (GMT -0700)
Flagstaff Pulliam

Weather History for KFLG - January, 2013

Change the Weather History Date:

Monday, January 28, 2013

  Actual Average Record
Temperature  
Mean Temperature 26 °F 30 °F  
Max Temperature 34 °F 43 °F 63 °F (1986)
Min Temperature 18 °F 18 °F -13 °F (1918)
Degree Days  
Heating Degree Days 39 35  
Month to date heating degree days 1150 986  
Since 1 July heating degree days 3721 3814  
Cooling Degree Days 0 0  
Month to date cooling degree days 0 0  
Year to date cooling degree days 0 0  
Moisture  
Dew Point 23 °F    
Average Humidity 71    
Maximum Humidity 89    
Minimum Humidity 53    
Precipitation  
Precipitation 0.24 in 0.06 in 0.85 in (1916)
Month to date precipitation 2.64 1.85  
Year to date precipitation 2.64 1.85  
Snow  
Snow 2.40 in 0.80 in 7.20 in (1979)
Month to date snowfall 3.4 20.8  
Since 1 July snowfall 33.0 49.9  
Snow Depth 1.00 in    
Sea Level Pressure  
Sea Level Pressure 29.82 in    
Wind  
Wind Speed 12 mph (WSW)    
Max Wind Speed 28 mph    
Max Gust Speed 43 mph    
Visibility 5 miles    
Events Fog , Snow    
T = Trace of Precipitation, MM = Missing Value Source: NWS Daily Summary

Daily Weather History Graph

Daily Weather History Graph

Search for Another Location

Airport or City:

Trip Planner

Search our weather history database for the weather conditions in past years. The results will help you decide how hot, cold, wet, or windy it might be!

Date:

Astronomy

Jan. 28, 2013 Rise Set
Actual Time 7:28 AM MST 5:51 PM MST
Civil Twilight 7:01 AM MST 6:18 PM MST
Nautical Twilight 6:30 AM MST 6:48 PM MST
Astronomical Twilight 6:01 AM MST 7:18 PM MST
Moon 7:43 PM MST (1/28) 8:01 AM MST (1/28)
Length of Visible Light 11h 16m
Length of Day
10h 23m
Full, 97% of the Moon is Illuminated
Jan 28
Full
Feb 3
Last Quarter
Feb 10
New
Feb 17
First Quarter
Feb 25
Full

Hourly Weather History & Observations

Time (MST) Temp. Windchill Dew Point Humidity Pressure Visibility Wind Dir Wind Speed Gust Speed Precip Events Conditions
12:29 AM 33.8 °F 28.6 °F 28.4 °F 81% 29.88 in 10.0 mi Variable 5.8 mph - N/A   Overcast
12:57 AM 33.1 °F 26.9 °F 30.9 °F 92% 29.78 in 10.0 mi SW 6.9 mph - N/A   Overcast
1:16 AM 33.8 °F 25.8 °F 30.2 °F 87% 29.86 in 10.0 mi SW 10.4 mph - N/A   Overcast
1:57 AM 34.0 °F 23.8 °F 30.0 °F 85% 29.75 in 10.0 mi SW 16.1 mph 26.5 mph 0.00 in   Overcast
2:10 AM 33.8 °F 22.8 °F 30.2 °F 87% 29.83 in 2.5 mi SW 18.4 mph 25.3 mph 0.00 in Snow Light Snow
2:14 AM 33.8 °F 24.3 °F 30.2 °F 87% 29.83 in 1.5 mi SSW 13.8 mph 25.3 mph 0.00 in Snow Light Snow
2:21 AM 33.8 °F 24.3 °F 30.2 °F 87% 29.83 in 1.0 mi SW 13.8 mph - 0.01 in Snow Light Snow
2:26 AM 33.8 °F 24.3 °F 30.2 °F 87% 29.84 in 0.8 mi WSW 13.8 mph - 0.01 in Snow Light Snow
2:42 AM 32.0 °F 23.0 °F 30.2 °F 93% 29.83 in 1.2 mi SW 11.5 mph - 0.05 in Snow Light Snow
2:57 AM 32.0 °F 23.0 °F 30.9 °F 96% 29.75 in 0.5 mi WSW 11.5 mph 19.6 mph 0.07 in Fog , Snow Snow
3:06 AM 33.8 °F 23.5 °F 30.2 °F 87% 29.83 in 2.5 mi SW 16.1 mph 23.0 mph 0.01 in Snow Light Snow
3:11 AM 33.8 °F 21.9 °F 30.2 °F 87% 29.83 in 9.0 mi SW 21.9 mph 27.6 mph 0.01 in Snow Light Snow
3:25 AM 33.8 °F 22.5 °F 30.2 °F 87% 29.83 in 1.5 mi SW 19.6 mph 25.3 mph 0.01 in Snow Light Snow
3:30 AM 32.0 °F 22.1 °F 30.2 °F 93% 29.82 in 0.5 mi WSW 13.8 mph 28.8 mph 0.02 in Fog , Snow Snow
3:39 AM 32.0 °F 20.8 °F 30.2 °F 93% 29.82 in 1.0 mi SW 17.3 mph 26.5 mph 0.04 in Snow Light Snow
3:41 AM 32.0 °F 22.1 °F 30.2 °F 93% 29.82 in 2.0 mi WSW 13.8 mph 26.5 mph 0.04 in Snow Light Snow
3:48 AM 32.0 °F 23.0 °F 30.2 °F 93% 29.82 in 9.0 mi WSW 11.5 mph 23.0 mph 0.04 in   Overcast
3:55 AM 32.0 °F 21.6 °F 28.4 °F 87% 29.81 in 10.0 mi WSW 15.0 mph 24.2 mph 0.04 in   Overcast
3:57 AM 32.0 °F 22.5 °F 28.9 °F 88% 29.74 in 10.0 mi WSW 12.7 mph 24.2 mph 0.04 in   Overcast
4:04 AM 32.0 °F 22.5 °F 28.4 °F 87% 29.81 in 10.0 mi WSW 12.7 mph 28.8 mph N/A   Overcast
4:57 AM 32.0 °F 19.5 °F 28.0 °F 85% 29.71 in 10.0 mi SW 21.9 mph 31.1 mph 0.00 in   Overcast
5:40 AM 32.0 °F 22.1 °F 26.6 °F 80% 29.78 in 7.0 mi WSW 13.8 mph 41.4 mph 0.00 in Snow Light Snow
5:50 AM 32.0 °F 20.5 °F 28.4 °F 87% 29.78 in 2.5 mi WSW 18.4 mph 31.1 mph 0.01 in Snow Light Snow
5:57 AM 32.0 °F 19.5 °F 27.0 °F 82% 29.69 in 1.8 mi SW 21.9 mph 35.7 mph 0.03 in Snow Light Snow
6:03 AM 32.0 °F 20.1 °F 26.6 °F 80% 29.77 in 3.0 mi WSW 19.6 mph 33.4 mph 0.00 in Snow Light Snow
6:17 AM 30.2 °F 18.9 °F 26.6 °F 86% 29.77 in 1.8 mi WSW 16.1 mph 31.1 mph 0.00 in Snow Light Snow
6:32 AM 30.2 °F 20.8 °F 26.6 °F 86% 29.78 in 3.0 mi WSW 11.5 mph 29.9 mph 0.01 in Snow Light Snow
6:39 AM 30.2 °F 18.5 °F 26.6 °F 86% 29.78 in 3.0 mi WSW 17.3 mph 27.6 mph 0.02 in Snow Light Snow
6:48 AM 30.2 °F 18.5 °F 26.6 °F 86% 29.78 in 2.0 mi WSW 17.3 mph 25.3 mph 0.02 in Snow Light Snow
6:57 AM 30.0 °F 16.0 °F 26.1 °F 85% 29.73 in 2.5 mi WSW 25.3 mph 34.5 mph 0.03 in Snow Light Snow
7:07 AM 28.4 °F 17.0 °F 26.6 °F 93% 29.80 in 1.2 mi WSW 15.0 mph 32.2 mph 0.01 in Snow Light Snow
7:22 AM 28.4 °F 16.2 °F 26.6 °F 93% 29.80 in 3.0 mi WSW 17.3 mph 28.8 mph 0.03 in Snow Light Snow
7:51 AM 28.4 °F 16.6 °F 24.8 °F 86% 29.82 in 2.5 mi SW 16.1 mph 24.2 mph 0.03 in Snow Light Snow
7:57 AM 28.9 °F 17.7 °F 24.1 °F 82% 29.76 in 5.0 mi WSW 15.0 mph 24.2 mph 0.03 in Snow Light Snow
8:33 AM 28.4 °F 19.1 °F 21.2 °F 74% 29.81 in 4.0 mi WSW 10.4 mph 21.9 mph 0.00 in Snow Light Snow
8:57 AM 28.0 °F 17.5 °F 21.9 °F 78% 29.77 in 3.0 mi WSW 12.7 mph 23.0 mph 0.01 in Snow Light Snow
9:05 AM 26.6 °F 15.7 °F 21.2 °F 80% 29.82 in 1.8 mi West 12.7 mph 20.7 mph 0.00 in Snow Light Snow
9:14 AM 26.6 °F 15.2 °F 21.2 °F 80% 29.82 in 3.0 mi WSW 13.8 mph 20.7 mph 0.00 in Snow Light Snow
9:25 AM 26.6 °F 15.2 °F 21.2 °F 80% 29.82 in 1.8 mi WSW 13.8 mph 25.3 mph 0.00 in Snow Light Snow
9:28 AM 26.6 °F 16.2 °F 21.2 °F 80% 29.82 in 2.0 mi WSW 11.5 mph 20.7 mph 0.00 in Snow Light Snow
9:37 AM 26.6 °F 17.5 °F 19.4 °F 74% 29.82 in 9.0 mi WSW 9.2 mph 20.7 mph 0.00 in   Overcast
9:57 AM 27.0 °F 15.6 °F 18.0 °F 69% 29.78 in 10.0 mi WSW 13.8 mph 28.8 mph 0.00 in   Overcast
10:57 AM 27.0 °F 13.9 °F 15.1 °F 61% 29.81 in 10.0 mi WSW 18.4 mph 25.3 mph N/A   Overcast
11:57 AM 28.9 °F 17.7 °F 16.0 °F 58% 29.79 in 10.0 mi SW 15.0 mph 29.9 mph N/A   Mostly Cloudy
12:57 PM 28.0 °F 15.7 °F 15.1 °F 58% 29.78 in 10.0 mi SW 17.3 mph 27.6 mph 0.00 in   Clear
1:57 PM 30.0 °F 17.2 °F 16.0 °F 56% 29.75 in 10.0 mi SSW 20.7 mph 33.4 mph N/A   Mostly Cloudy
2:57 PM 30.0 °F 18.3 °F 17.1 °F 59% 29.79 in 10.0 mi SW 17.3 mph 25.3 mph N/A   Overcast
3:49 PM 26.6 °F 14.7 °F 19.4 °F 74% 29.83 in 9.0 mi West 15.0 mph 19.6 mph 0.00 in   Overcast
3:57 PM 27.0 °F 18.7 °F 19.9 °F 75% 29.81 in 10.0 mi WSW 8.1 mph 19.6 mph 0.00 in   Overcast
4:57 PM 26.1 °F 19.4 °F 19.0 °F 75% 29.84 in 9.0 mi Variable 5.8 mph 17.3 mph 0.00 in Snow Light Snow
5:21 PM 24.8 °F 19.1 °F 19.4 °F 80% 29.85 in 1.8 mi Variable 4.6 mph - 0.00 in Snow Light Snow
5:26 PM 24.8 °F 16.9 °F 21.2 °F 86% 29.85 in 0.5 mi West 6.9 mph - 0.01 in Fog , Snow Snow
5:28 PM 24.8 °F 16.9 °F 21.2 °F 86% 29.85 in 0.2 mi Variable 6.9 mph - 0.01 in Fog , Snow Snow
5:40 PM 23.0 °F 17.0 °F 19.4 °F 86% 29.85 in 0.5 mi Variable 4.6 mph - 0.02 in Fog , Snow Light Snow
5:52 PM 23.0 °F 14.7 °F 19.4 °F 86% 29.85 in 0.5 mi West 6.9 mph - 0.02 in Fog , Snow Snow
5:57 PM 23.0 °F 14.7 °F 19.0 °F 85% 29.85 in 0.5 mi West 6.9 mph - 0.02 in Fog , Snow Light Snow
6:06 PM 23.0 °F 17.0 °F 19.4 °F 86% 29.85 in 2.0 mi Variable 4.6 mph - 0.00 in Snow Light Snow
6:18 PM 23.0 °F 13.1 °F 19.4 °F 86% 29.85 in 3.0 mi West 9.2 mph - 0.00 in Snow Light Snow
6:34 PM 23.0 °F 14.7 °F 19.4 °F 86% 29.85 in 2.5 mi West 6.9 mph - 0.00 in Snow Light Snow
6:39 PM 23.0 °F 13.9 °F 19.4 °F 86% 29.85 in 3.0 mi WSW 8.1 mph - 0.00 in Snow Light Snow
6:52 PM 23.0 °F 17.0 °F 19.4 °F 86% 29.86 in 2.5 mi Variable 4.6 mph - 0.00 in Snow Light Snow
6:57 PM 23.0 °F 17.0 °F 19.0 °F 85% 29.86 in 1.8 mi West 4.6 mph - 0.00 in Snow Light Snow
7:08 PM 23.0 °F 15.8 °F 19.4 °F 86% 29.85 in 2.5 mi West 5.8 mph - 0.01 in Snow Light Snow
7:16 PM 23.0 °F 14.7 °F 19.4 °F 86% 29.85 in 5.0 mi West 6.9 mph - 0.01 in Snow Light Snow
7:43 PM 21.2 °F 14.9 °F 17.6 °F 86% 29.86 in 7.0 mi Variable 4.6 mph - 0.01 in Snow Light Snow
7:54 PM 21.2 °F - 17.6 °F 86% 29.86 in 10.0 mi Calm Calm - 0.01 in   Scattered Clouds
7:57 PM 21.0 °F - 17.1 °F 85% 29.88 in 10.0 mi Calm Calm - 0.01 in   Scattered Clouds
8:05 PM 21.2 °F - 17.6 °F 86% 29.86 in 10.0 mi Calm Calm - N/A   Mostly Cloudy
8:57 PM 21.0 °F 14.6 °F 16.0 °F 81% 29.89 in 10.0 mi WSW 4.6 mph - N/A   Mostly Cloudy
9:40 PM 19.4 °F 14.3 °F 15.8 °F 86% 29.87 in 10.0 mi Variable 3.5 mph - N/A   Mostly Cloudy
9:52 PM 19.4 °F 10.4 °F 15.8 °F 86% 29.87 in 10.0 mi Variable 6.9 mph - N/A   Mostly Cloudy
9:57 PM 19.9 °F 11.1 °F 16.0 °F 85% 29.91 in 10.0 mi Variable 6.9 mph - N/A   Mostly Cloudy
10:57 PM 19.9 °F 13.4 °F 14.0 °F 78% 29.90 in 10.0 mi Variable 4.6 mph - 0.00 in   Scattered Clouds
11:57 PM 18.0 °F 8.7 °F 10.9 °F 74% 29.90 in 10.0 mi West 6.9 mph - N/A   Clear